This is the latest recevied weather packets stored in our database for station/object VE8SKI. If no packets are shown the sender has not sent any weather packets the latest 10 day(s).
| Time | Temp. | Humidity | Pressure | Rain* | Wind** | Luminosity | Snow |
|---|---|---|---|---|---|---|---|
| 1777609866 | 7.78° C | 59% | 1006.4 hPa | 0 mm | 2.68 m/s, 260° | - | - |
| 1777609566 | 7.78° C | 59% | 1006.3 hPa | 0 mm | 2.68 m/s, 224° | - | - |
| 1777609264 | 7.78° C | 59% | 1006.3 hPa | 0 mm | 3.58 m/s, 210° | - | - |
| 1777608964 | 7.78° C | 58% | 1006.4 hPa | 0 mm | 2.68 m/s, 226° | - | - |
| 1777608665 | 7.78° C | 58% | 1006.5 hPa | 0 mm | 3.58 m/s, 200° | - | - |
| 1777608365 | 7.78° C | 58% | 1006.6 hPa | 0 mm | 3.13 m/s, 300° | - | - |
| 1777608066 | 7.78° C | 59% | 1006.6 hPa | 0 mm | 2.68 m/s, 222° | - | - |
| 1777607766 | 7.22° C | 59% | 1006.9 hPa | 0 mm | 3.13 m/s, 224° | - | - |
| 1777607464 | 7.22° C | 60% | 1006.7 hPa | 0 mm | 2.24 m/s, 152° | - | - |
| 1777607164 | 7.22° C | 60% | 1006.9 hPa | 0 mm | 0.89 m/s, 155° | - | - |
| 1777606865 | 7.22° C | 61% | 1007.1 hPa | 0 mm | 1.34 m/s, 307° | - | - |
| 1777606565 | 7.22° C | 61% | 1007.2 hPa | 0 mm | 0.89 m/s, 188° | - | - |
| 1777606266 | 6.67° C | 63% | 1007.2 hPa | 0 mm | 0.89 m/s, 240° | - | - |
| 1777605966 | 6.67° C | 62% | 1007.2 hPa | 0 mm | 1.34 m/s, 166° | - | - |
| 1777605664 | 6.67° C | 62% | 1007.2 hPa | 0 mm | 0.45 m/s, 170° | - | - |
| 1777605364 | 7.22° C | 62% | 1007.5 hPa | 0 mm | 1.34 m/s, 169° | - | - |
| 1777605065 | 7.22° C | 61% | 1007.5 hPa | 0 mm | 0 m/s | - | - |
| 1777604765 | 7.22° C | 61% | 1007.5 hPa | 0 mm | 0.45 m/s, 108° | - | - |
| 1777604466 | 7.22° C | 61% | 1007.6 hPa | 0 mm | 0.89 m/s, 135° | - | - |
| 1777604166 | 7.22° C | 60% | 1007.6 hPa | 0 mm | 0.89 m/s, 205° | - | - |
| 1777603864 | 7.22° C | 60% | 1007.6 hPa | 0 mm | 2.24 m/s, 149° | - | - |
| 1777603564 | 7.22° C | 60% | 1007.8 hPa | 0 mm | 0.89 m/s, 222° | - | - |
| 1777603265 | 7.22° C | 60% | 1007.8 hPa | 0 mm | 1.34 m/s, 255° | - | - |
| 1777602965 | 7.22° C | 60% | 1007.8 hPa | 0 mm | 0.89 m/s, 111° | - | - |
| 1777602366 | 7.22° C | 60% | 1007.8 hPa | 0 mm | 1.34 m/s, 100° | - | - |
* Rain latest hour (hover to see other rain measurements)
** Current wind speed in m/s (hover to see current wind gust speed)